Temperature
16 16 17 17 14 12 13 14 15 15 15 16 15 15 13 13 14 13 12 12 12 13 13 13 13 13 13 13 13 13 13 13 13 13 13 13 13 14 14 14 14 14 14 14 14 14 14 14 14
16 16 16 16 12 13 13 14 15 15 15 16 15 14 12 12 12 12 12 12 12 12 12 12 12 13 13 13 13 13 13 13 13 13 13 13 13 13 13 13 13 14 13 13 13 13 13 13 13
16 16 16 12 12 13 14 14 14 15 16 16 14 13 12 11 12 12 12 12 12 12 12 12 12 12 12 13 13 13 13 13 13 13 13 13 13 13 13 13 13 13 13 13 13 13 13 13 13
16 16 15 11 13 13 14 14 14 15 16 15 13 11 11 11 12 12 12 12 12 12 12 12 12 12 12 12 12 12 13 13 13 12 13 13 13 13 13 13 13 13 13 13 13 13 13 13 13
15 15 12 11 13 13 13 14 15 14 14 14 13 11 10 11 11 11 11 12 12 12 12 12 12 12 12 12 12 12 12 12 12 12 12 12 12 13 12 12 12 13 13 12 12 12 12 12 12
15 12 11 11 12 13 13 15 15 14 14 13 12 10 10 10 11 11 11 11 11 11 11 11 11 11 12 12 12 11 11 12 12 12 12 12 12 12 12 12 12 12 12 12 12 12 12 12 12
13 10 11 12 12 13 14 14 14 12 12 12 13 10 9 10 10 11 11 11 11 11 11 11 11 11 11 11 11 11 11 11 11 11 11 12 12 12 11 12 12 12 12 12 12 12 12 12 12
14 10 12 11 12 13 13 14 13 13 11 12 12 10 9 10 10 10 10 10 10 11 11 11 11 11 11 11 11 11 11 11 11 11 11 11 11 11 11 11 11 11 11 11 11 11 11 11 11
14 10 10 12 12 12 13 12 12 12 11 11 11 11 10 10 10 10 10 10 10 10 10 10 10 10 10 10 10 10 10 11 11 11 11 11 11 11 11 11 11 11 11 11 11 11 11 11 11
12 9 11 12 12 12 12 12 11 11 10 9 9 9 10 9 9 9 10 10 10 10 10 10 10 10 10 10 10 10 10 10 10 10 10 10 10 10 10 10 10 10 10 10 10 10 10 10 11
11 9 11 11 12 12 11 11 11 10 8 8 8 9 9 9 9 9 9 9 9 9 9 9 9 9 9 9 9 10 10 10 10 10 10 10 10 10 10 10 10 10 10 10 10 10 10 10 10
10 10 11 11 11 11 11 10 9 8 9 9 9 9 9 8 8 8 8 8 8 8 8 8 8 9 9 9 9 9 9 9 9 9 9 9 9 9 9 9 9 9 10 10 10 10 9 9 9
9 9 10 10 11 10 10 8 8 7 8 8 8 8 8 8 8 7 8 7 8 8 8 8 8 8 8 8 8 9 9 9 9 9 9 9 9 9 9 9 9 9 9 9 9 9 9 9 9
9 9 9 10 10 10 8 7 7 7 7 7 7 7 7 7 7 7 7 7 7 7 7 7 7 7 7 8 8 8 8 8 8 8 8 8 8 8 8 8 8 8 8 8 8 8 8 8 8
10 8 8 9 9 9 8 7 6 7 6 6 6 6 5 5 5 6 6 6 6 6 6 6 7 7 7 7 7 7 7 7 7 7 7 7 7 7 7 7 7 8 8 8 8 8 8 8 8
8 8 8 8 8 8 8 7 5 6 6 5 4 4 4 4 4 5 5 5 5 5 6 6 6 6 6 6 6 7 7 7 7 7 7 6 7 7 7 7 7 7 7 7 7 7 7 7 7
7 7 7 8 7 7 7 6 5 5 5 4 4 3 3 3 3 4 4 4 5 5 5 5 5 5 5 6 6 6 6 6 6 6 6 6 6 6 6 6 6 6 6 7 7 7 7 7 7
7 6 7 7 6 6 5 4 3 4 4 3 3 3 2 2 2 3 3 3 4 4 4 4 4 5 5 5 5 5 5 5 5 5 5 5 5 5 5 5 6 6 6 6 6 6 6 6 6
7 6 6 6 6 5 4 3 3 3 3 2 2 2 2 2 2 2 2 3 3 3 3 3 4 4 4 4 4 4 4 4 4 4 4 4 5 5 5 5 5 5 5 5 5 5 5 6 5
6 6 5 5 5 5 4 2 2 2 2 2 1 1 1 1 1 1 2 2 2 2 3 3 3 3 3 3 3 3 4 4 4 4 4 4 4 4 4 4 4 4 4 4 5 5 5 5 5
5 5 4 4 4 4 3 2 2 2 1 1 1 1 1 0 0 1 1 1 1 2 2 2 2 2 2 2 2 2 3 3 3 3 3 3 3 3 3 3 4 4 4 4 4 4 4 4 4
5 4 4 4 3 2 3 2 2 1 0 -0 -0 0 0 -0 0 0 0 0 0 1 1 1 1 1 1 1 2 2 2 2 2 2 2 2 2 3 3 3 3 3 3 3 3 3 3 3 3
4 4 3 3 2 1 1 1 1 -0 0 -0 -1 -1 -1 -1 -1 -1 -1 -1 -1 -0 -0 0 0 1 1 1 1 1 1 1 1 2 2 2 2 2 2 2 2 2 2 2 3 3 3 3 3
3 3 2 1 0 1 1 1 1 -1 -0 -1 -1 -1 -1 -1 -1 -1 -1 -1 -1 -1 -1 -1 -1 -0 -0 -0 0 0 0 1 1 1 1 1 1 1 1 1 1 1 1 2 2 2 2 2 2
2 2 2 1 1 1 1 0 -0 -1 -2 -2 -2 -2 -2 -2 -2 -2 -2 -2 -2 -2 -2 -1 -1 -1 -1 -1 -1 -0 -0 -0 0 0 0 0 1 1 1 1 1 1 1 1 1 1 1 1 1
1 2 2 2 1 0 -0 -0 -1 -3 -3 -2 -2 -2 -2 -2 -2 -2 -2 -2 -2 -2 -2 -2 -2 -2 -2 -2 -1 -1 -1 -1 -1 -1 -1 -1 -0 -0 -0 -0 -0 -0 0 0 0 0 0 1 1
1 1 1 -0 -1 -1 -1 -2 -2 -2 -3 -3 -3 -3 -3 -3 -3 -3 -3 -3 -3 -3 -3 -3 -3 -3 -3 -2 -2 -2 -2 -2 -2 -2 -1 -1 -1 -1 -1 -1 -1 -1 -1 -1 -1 -1 -0 -0 -0
1 0 -1 -1 -0 -0 -1 -2 -1 -3 -3 -4 -4 -4 -4 -3 -4 -4 -4 -4 -4 -4 -4 -4 -4 -4 -4 -3 -3 -3 -3 -3 -3 -3 -2 -2 -2 -2 -2 -1 -1 -1 -1 -1 -1 -1 -1 -1 -1
-1 -0 -1 -2 -2 -1 -1 -1 -2 -3 -4 -4 -4 -4 -4 -4 -4 -4 -4 -4 -4 -4 -4 -4 -4 -4 -4 -4 -4 -4 -4 -4 -4 -4 -3 -3 -3 -3 -2 -2 -2 -2 -2 -2 -2 -2 -1 -1 -1
-1 -2 -2 -1 -2 -3 -3 -2 -3 -4 -4 -4 -4 -4 -4 -4 -5 -5 -5 -5 -5 -5 -5 -5 -5 -5 -5 -5 -5 -5 -5 -4 -4 -4 -4 -4 -4 -4 -3 -3 -3 -3 -2 -2 -2 -2 -2 -2 -2
Wind_Speed
8 6 3 4 5 4 2 3 2 0 1 0 3 7 8 5 3 4 1 1 5 5 5 7 9 9 9 10 11 11 10 10 10 10 10 10 10 11 11 11 11 11 11 11 11 11 12 12 12
5 2 5 5 5 2 4 4 3 3 3 2 4 6 6 4 3 5 2 2 5 6 6 6 9 9 10 10 11 11 10 10 10 10 10 10 10 11 11 11 10 11 11 11 11 11 11 11 12
4 2 4 5 4 6 5 4 5 2 0 2 4 5 4 3 2 3 2 4 7 7 7 7 9 9 10 10 11 10 10 10 10 10 11 11 11 11 10 10 10 10 11 10 10 10 10 10 11
3 4 5 4 4 5 5 4 4 3 1 3 4 5 3 3 1 2 4 7 8 7 8 9 10 9 10 11 10 10 10 10 10 10 11 11 11 11 10 10 10 10 10 9 9 9 10 10 10
4 4 4 1 4 4 3 4 4 3 2 2 4 5 3 4 3 5 6 7 8 7 8 9 10 11 10 9 9 9 10 10 10 10 10 10 10 11 10 10 9 9 9 8 8 8 9 9 9
4 4 4 4 4 4 2 2 3 2 2 2 4 5 2 2 4 5 6 7 8 7 8 8 9 10 10 10 8 9 9 9 10 10 10 10 10 10 10 10 9 8 8 8 7 7 8 8 8
4 5 5 5 4 4 3 1 3 3 2 1 3 6 2 0 2 4 6 7 8 8 8 7 7 7 8 8 8 8 9 9 9 9 10 10 10 10 10 10 9 9 8 7 7 7 7 8 8
5 5 3 4 5 5 2 2 2 3 2 2 3 6 4 4 3 6 6 6 6 7 7 6 6 6 6 6 7 7 8 9 9 9 10 10 9 9 9 9 9 9 8 8 7 7 7 7 8
4 4 4 5 5 4 1 2 1 3 5 4 4 2 2 7 7 7 6 5 5 5 5 5 5 5 5 5 6 7 7 9 9 8 9 8 8 8 8 8 8 8 8 8 8 7 8 8 7
4 4 5 3 2 3 2 2 2 3 3 3 4 5 6 7 7 7 6 4 4 3 3 3 4 4 4 4 5 6 6 7 8 8 8 7 7 7 7 8 8 8 8 8 8 8 8 7 7
4 6 3 1 1 2 3 2 1 5 2 2 3 5 6 6 6 5 4 3 3 2 2 3 3 4 4 4 4 5 5 6 7 7 7 7 7 7 7 7 8 8 8 8 8 8 7 6 6
3 1 3 1 1 2 2 3 2 2 2 2 5 8 7 6 5 4 3 3 3 3 2 2 3 4 4 4 4 4 4 5 5 6 6 6 5 5 5 5 6 6 6 6 6 6 6 6 6
2 1 1 1 3 3 4 3 3 1 2 5 7 8 7 6 4 3 3 2 3 3 2 2 3 3 3 4 4 4 3 4 5 5 5 5 4 3 4 4 5 5 5 5 4 5 5 5 5
2 2 1 0 1 1 4 1 2 2 3 6 7 6 5 5 4 3 2 2 2 2 2 2 2 3 4 3 3 3 3 4 5 5 4 4 4 3 3 3 3 3 4 3 3 3 3 3 3
2 2 1 1 1 1 4 2 2 2 5 6 5 4 4 4 4 3 2 2 2 2 2 2 2 3 3 3 2 2 2 3 3 3 4 4 4 3 3 2 2 2 3 3 3 3 3 2 3
2 2 2 3 2 2 4 5 2 2 6 4 3 3 4 4 4 3 4 4 3 3 3 2 3 3 3 3 2 2 2 3 2 2 3 3 4 3 3 2 1 2 3 3 2 2 2 2 2
2 2 4 3 2 2 3 5 2 2 5 4 3 3 3 3 4 4 4 4 3 3 3 3 3 3 2 3 3 3 3 3 2 2 2 3 3 3 3 2 1 2 2 2 1 2 1 1 2
5 4 4 5 2 2 3 4 2 1 4 4 3 2 2 2 2 3 4 4 4 4 4 4 4 3 3 3 2 3 3 3 4 3 3 2 2 2 2 1 1 2 1 1 1 1 1 0 1
4 4 4 4 1 1 5 4 4 2 2 3 2 2 2 1 2 3 4 4 5 5 5 5 5 4 3 2 1 1 1 1 2 3 3 3 3 2 2 1 1 1 1 0 1 1 1 1 1
2 2 2 2 2 1 3 4 3 2 2 3 4 3 2 1 3 3 3 4 4 4 5 4 4 4 3 2 1 1 1 1 1 3 4 4 3 3 1 1 0 0 1 1 1 1 1 1 1
2 4 3 3 4 2 2 4 2 0 1 1 1 2 2 3 2 1 2 3 4 4 4 4 4 4 4 4 2 2 2 2 2 2 3 5 4 3 2 1 0 0 1 2 2 1 1 1 1
5 3 3 2 1 3 0 4 5 2 1 1 1 1 2 2 2 2 2 3 4 4 4 4 4 5 5 4 3 2 2 2 2 2 2 4 5 5 4 3 1 1 1 2 2 2 1 2 2
3 1 2 2 2 2 1 3 6 1 3 5 3 2 1 1 2 2 2 2 3 4 4 5 5 5 5 4 3 2 2 2 3 2 2 2 3 4 5 4 3 1 1 2 2 2 2 2 2
2 3 3 4 3 3 4 5 6 3 5 4 3 2 1 1 1 2 2 3 4 4 5 5 5 5 5 5 4 3 3 3 3 3 2 2 2 3 4 5 4 3 2 2 2 3 3 3 2
3 4 3 4 2 6 2 4 7 3 3 3 5 3 2 1 1 1 2 3 4 5 5 5 6 6 6 6 4 4 3 3 3 3 2 3 3 3 3 4 4 4 4 3 3 3 3 3 3
2 4 5 5 5 5 2 6 5 2 2 1 3 3 2 1 1 0 1 2 3 4 5 5 5 6 6 6 5 4 4 3 3 3 3 3 3 4 4 4 5 5 5 4 3 3 4 3 3
3 2 3 5 1 3 5 5 4 0 2 2 2 2 1 1 0 1 1 2 2 3 4 4 5 5 6 6 6 5 5 4 4 4 3 3 4 4 5 4 4 5 5 4 3 4 4 4 4
1 5 4 4 3 4 6 5 4 4 4 2 2 2 2 2 1 2 2 2 2 2 3 4 4 4 5 5 5 5 5 5 5 4 4 4 5 5 5 5 5 5 5 5 4 4 4 4 5
2 2 3 4 4 5 4 6 4 6 5 5 4 3 3 3 2 2 3 3 3 3 3 3 4 4 5 5 5 5 5 6 5 4 5 5 5 6 6 5 5 5 5 5 5 5 5 5 6
2 3 5 4 4 4 3 6 2 2 3 4 4 3 3 3 3 2 2 3 3 3 3 3 4 4 5 5 5 5 5 5 4 5 5 6 6 6 6 6 6 6 6 5 6 6 6 6 7
Wind_Direction
336 347 59 58 61 62 215 251 221 162 72 83 77 93 101 96 109 140 158 80 105 111 122 131 128 118 112 105 100 96 93 88 86 86 83 80 78 77 75 77 78 76 75 76 79 78 79 78 77
343 18 54 64 102 142 244 240 209 221 186 144 81 86 88 88 79 106 100 84 109 108 109 119 124 119 113 108 102 98 95 91 88 86 83 81 77 75 73 73 77 76 75 74 76 76 78 78 79
339 59 84 86 135 181 208 214 199 224 185 120 83 61 95 114 113 130 140 113 95 87 92 104 116 118 113 109 104 100 96 93 90 87 84 81 77 75 74 72 73 76 75 75 76 76 75 76 78
62 53 62 93 192 218 204 202 184 163 55 58 104 82 66 30 135 140 114 103 97 83 86 89 95 109 112 108 105 101 97 95 92 89 84 81 78 75 73 73 73 73 75 75 76 77 73 72 73
67 85 87 124 221 245 226 211 181 155 154 68 107 109 87 357 54 100 101 102 101 88 85 89 86 88 94 102 106 103 99 95 92 88 84 81 79 76 72 71 74 74 77 78 78 79 75 71 67
69 80 118 195 219 246 251 215 155 140 140 86 107 119 123 17 72 95 97 98 97 94 83 84 84 84 84 84 91 96 96 93 91 86 84 81 79 76 73 68 69 72 75 77 81 80 74 69 67
115 117 167 185 195 230 230 163 128 135 119 86 127 125 140 328 100 104 97 94 88 87 82 74 74 78 82 84 83 88 93 89 87 83 82 83 79 77 74 68 66 68 70 73 76 75 71 67 69
128 120 162 188 187 215 215 113 101 113 134 30 85 135 178 198 148 104 95 87 83 79 75 70 70 70 73 80 81 81 91 92 88 82 80 81 79 78 76 70 68 66 67 69 71 71 69 67 69
100 98 194 201 189 196 167 106 41 75 95 53 42 101 148 135 123 109 101 84 77 74 64 63 63 61 64 76 78 76 84 86 83 80 82 79 74 73 75 74 71 66 64 63 60 59 63 62 63
103 169 207 210 204 167 152 128 149 101 76 60 46 46 84 110 119 121 123 119 102 89 69 60 60 54 58 71 72 74 75 80 77 77 77 72 71 73 75 72 66 62 62 59 55 53 54 55 52
140 177 184 255 286 151 135 115 83 125 134 195 165 133 118 109 110 115 117 114 111 100 75 51 56 59 62 61 70 68 69 73 77 75 75 76 72 68 67 65 60 57 56 53 50 46 43 48 51
140 171 161 254 340 103 133 128 81 94 181 152 144 136 131 128 128 133 131 115 100 88 59 44 42 57 63 69 69 68 67 69 65 66 74 82 73 62 56 57 58 56 53 49 46 45 39 41 45
165 153 107 93 60 83 91 94 118 106 111 93 103 115 125 130 131 132 118 108 92 84 57 47 47 56 59 64 65 62 59 71 74 70 69 82 81 71 60 52 54 50 53 52 43 40 38 35 35
162 137 140 49 95 84 110 83 85 218 124 100 102 112 121 125 122 94 86 88 90 80 61 35 63 53 53 51 56 63 59 76 80 71 62 74 85 86 74 56 46 36 44 51 51 40 36 26 30
100 91 352 280 168 141 106 352 230 199 118 110 111 108 99 90 81 71 56 53 68 78 60 41 55 47 51 43 42 58 61 79 74 64 62 66 78 90 87 70 42 24 37 49 49 41 40 36 29
76 88 252 264 183 147 142 246 249 158 124 121 119 104 92 75 72 58 48 46 44 51 49 37 41 41 37 31 31 57 59 66 61 63 64 63 66 77 82 64 30 32 52 49 42 53 38 31 20
58 207 232 258 201 148 178 234 262 133 131 134 130 123 105 76 49 43 46 49 47 51 52 34 33 38 27 25 28 47 54 48 38 49 65 70 74 77 75 67 39 47 53 44 36 42 38 35 14
205 215 229 235 245 148 206 233 270 169 144 154 152 135 116 101 52 49 47 47 48 45 46 38 26 21 24 28 32 34 33 26 26 26 36 45 61 71 70 54 55 66 67 43 46 57 25 40 3
179 191 227 243 265 210 232 248 265 233 164 173 178 156 146 142 45 62 58 53 47 37 35 31 25 13 22 15 7 6 325 335 2 9 15 20 29 45 65 38 34 55 112 98 56 61 49 17 17
182 187 233 300 342 265 252 260 265 216 191 180 177 172 165 98 49 49 50 44 40 28 22 24 16 5 6 2 331 309 301 285 340 2 5 5 15 19 25 52 93 78 148 131 106 69 58 347 7
212 194 211 251 332 345 342 301 275 285 94 89 136 155 149 150 141 78 53 38 29 22 12 6 6 4 359 2 9 11 17 6 4 353 348 353 358 359 349 343 40 345 179 187 194 174 158 216 268
229 212 198 209 14 283 105 278 265 251 261 263 254 144 152 132 119 99 66 35 22 7 6 7 11 10 5 10 20 26 6 324 294 293 308 343 356 353 346 346 347 339 235 205 212 197 210 196 226
214 211 203 196 167 292 270 221 279 247 240 247 235 198 174 142 122 100 76 44 21 13 12 6 9 11 7 7 6 359 342 319 312 316 327 332 346 348 348 346 346 326 282 244 223 213 212 217 224
121 63 46 54 89 259 227 196 272 233 230 237 214 198 182 138 95 70 45 38 23 18 14 9 9 7 3 3 0 352 336 328 327 324 324 318 316 330 338 338 335 318 295 265 241 223 218 222 230
79 92 29 348 334 251 206 205 250 268 268 222 190 182 176 153 103 55 32 19 13 10 6 4 7 3 360 360 358 348 335 322 305 293 298 303 305 298 302 318 313 308 298 286 265 238 233 229 228
179 151 163 210 237 277 283 232 254 291 339 62 127 146 140 142 137 44 2 7 1 358 359 360 0 357 357 356 350 349 344 336 316 306 299 291 287 282 298 298 297 296 293 291 275 248 241 238 232
145 175 158 143 147 273 263 278 295 190 18 49 97 121 176 221 281 318 334 347 344 341 341 345 350 352 354 352 348 348 350 343 327 319 316 307 307 309 304 297 293 291 287 281 276 253 239 237 235
117 145 114 140 185 258 281 263 242 229 235 236 215 218 246 270 292 308 314 316 324 326 330 342 345 347 347 349 346 346 341 338 332 330 328 320 316 315 311 307 291 288 285 279 270 270 252 240 243
130 152 148 150 171 186 260 266 232 210 203 205 220 228 238 252 262 277 292 303 315 334 338 340 344 345 346 345 343 342 336 335 336 335 330 325 320 316 307 301 298 286 279 278 269 266 263 248 246
181 186 156 173 224 196 215 264 290 207 207 198 217 235 249 254 263 272 284 303 318 327 333 333 336 336 333 334 336 333 330 329 333 329 325 325 319 316 310 303 294 292 287 278 267 264 265 256 250
Height
1514 1515 1516 1518 1522 1533 1534 1528 1522 1521 1521 1521 1520 1520 1523 1528 1532 1538 1536 1534 1536 1537 1538 1539 1540 1541 1542 1542 1543 1543 1543 1543 1544 1544 1544 1545 1545 1545 1545 1545 1545 1545 1545 1545 1546 1546 1546 1546 1546
1513 1515 1517 1518 1528 1538 1534 1525 1522 1520 1520 1520 1521 1522 1524 1528 1530 1532 1533 1534 1536 1537 1538 1539 1540 1541 1542 1542 1543 1543 1543 1543 1544 1544 1545 1545 1545 1545 1545 1545 1545 1545 1545 1545 1546 1546 1546 1546 1547
1513 1515 1517 1520 1529 1533 1528 1522 1521 1519 1520 1520 1522 1524 1526 1529 1530 1531 1533 1534 1535 1537 1538 1539 1540 1541 1542 1542 1542 1543 1543 1544 1544 1544 1545 1545 1545 1545 1545 1545 1545 1545 1545 1546 1546 1546 1546 1547 1547
1513 1516 1518 1525 1527 1524 1520 1519 1518 1519 1520 1520 1521 1525 1528 1530 1531 1532 1533 1534 1535 1536 1537 1539 1539 1541 1541 1542 1542 1543 1543 1543 1544 1544 1544 1545 1545 1545 1545 1545 1545 1545 1545 1545 1546 1546 1547 1547 1547
1513 1514 1522 1528 1525 1521 1517 1517 1517 1518 1520 1521 1522 1525 1528 1530 1531 1531 1532 1534 1535 1536 1537 1538 1539 1540 1541 1541 1542 1542 1543 1543 1543 1544 1544 1544 1544 1544 1544 1545 1545 1545 1545 1545 1546 1546 1546 1547 1547
1512 1514 1526 1530 1524 1519 1516 1516 1517 1518 1520 1521 1522 1525 1528 1530 1530 1531 1533 1534 1535 1536 1537 1538 1539 1540 1540 1541 1541 1542 1542 1543 1543 1543 1544 1544 1544 1544 1544 1544 1544 1544 1545 1545 1545 1546 1546 1546 1547
1512 1517 1523 1523 1523 1519 1516 1516 1517 1519 1520 1521 1522 1525 1527 1529 1530 1531 1533 1534 1535 1535 1536 1537 1538 1539 1540 1540 1541 1541 1542 1542 1542 1543 1543 1543 1543 1543 1543 1543 1543 1543 1544 1544 1544 1545 1545 1546 1546
1510 1515 1519 1521 1520 1518 1516 1516 1517 1518 1520 1522 1522 1524 1526 1528 1529 1531 1532 1533 1534 1535 1536 1537 1537 1538 1539 1540 1540 1540 1541 1541 1542 1542 1542 1542 1542 1542 1542 1542 1542 1543 1543 1543 1544 1544 1544 1545 1545
1510 1518 1521 1518 1516 1515 1515 1516 1518 1519 1520 1521 1522 1523 1525 1526 1528 1530 1531 1532 1533 1534 1535 1536 1536 1537 1538 1538 1539 1540 1540 1540 1540 1541 1541 1541 1541 1541 1541 1541 1542 1542 1542 1542 1542 1542 1543 1544 1544
1509 1518 1516 1514 1513 1513 1514 1515 1517 1519 1520 1522 1522 1523 1524 1526 1527 1528 1529 1530 1532 1533 1534 1535 1535 1536 1537 1537 1538 1538 1539 1539 1539 1539 1540 1540 1540 1540 1540 1540 1540 1541 1541 1541 1541 1541 1542 1542 1543
1508 1513 1512 1512 1512 1512 1514 1516 1517 1518 1522 1522 1522 1522 1523 1525 1526 1527 1528 1529 1530 1532 1533 1534 1534 1535 1536 1536 1536 1537 1537 1537 1537 1538 1538 1538 1538 1538 1539 1538 1539 1539 1540 1540 1540 1540 1540 1541 1541
1509 1510 1511 1511 1512 1512 1514 1515 1518 1519 1521 1521 1522 1522 1523 1524 1525 1526 1527 1528 1530 1531 1532 1533 1533 1534 1534 1535 1535 1535 1536 1536 1535 1536 1536 1536 1536 1537 1537 1537 1537 1537 1538 1538 1538 1538 1539 1539 1540
1509 1511 1511 1512 1512 1513 1514 1516 1518 1520 1520 1521 1522 1522 1522 1523 1524 1526 1527 1528 1529 1529 1530 1531 1532 1532 1533 1533 1533 1533 1534 1534 1534 1534 1534 1534 1535 1535 1535 1535 1535 1536 1536 1536 1536 1537 1537 1537 1538
1508 1510 1511 1511 1512 1513 1515 1517 1518 1519 1520 1520 1521 1521 1522 1523 1524 1525 1526 1526 1527 1528 1528 1529 1530 1530 1531 1531 1531 1532 1532 1532 1532 1532 1532 1532 1532 1533 1533 1533 1533 1533 1533 1534 1534 1534 1535 1535 1536
1508 1511 1512 1512 1512 1513 1515 1519 1519 1519 1519 1520 1520 1521 1522 1522 1523 1523 1524 1525 1526 1526 1527 1528 1528 1529 1529 1529 1529 1529 1529 1530 1530 1530 1530 1530 1530 1530 1531 1531 1531 1531 1531 1531 1531 1532 1532 1533 1533
1510 1513 1516 1513 1512 1513 1518 1520 1519 1519 1519 1519 1520 1521 1521 1522 1522 1523 1523 1524 1524 1525 1526 1526 1526 1526 1527 1527 1527 1527 1527 1527 1527 1527 1528 1528 1528 1528 1528 1528 1528 1528 1529 1529 1529 1529 1529 1530 1531
1514 1518 1516 1514 1512 1513 1517 1519 1518 1518 1518 1519 1520 1520 1521 1521 1522 1522 1522 1523 1523 1523 1524 1524 1524 1524 1524 1524 1524 1525 1525 1525 1525 1525 1525 1525 1525 1525 1526 1526 1526 1526 1526 1526 1526 1526 1527 1527 1527
1515 1517 1515 1515 1513 1514 1517 1519 1518 1518 1518 1518 1519 1520 1520 1520 1521 1521 1521 1522 1522 1522 1522 1522 1522 1522 1522 1522 1522 1522 1522 1522 1522 1522 1521 1522 1522 1522 1523 1523 1523 1523 1523 1523 1523 1523 1524 1524 1524
1511 1513 1516 1515 1514 1516 1516 1518 1518 1517 1517 1517 1518 1519 1519 1520 1521 1521 1520 1520 1520 1520 1520 1520 1520 1519 1519 1519 1519 1518 1518 1519 1519 1519 1519 1519 1519 1519 1520 1520 1520 1520 1520 1520 1520 1520 1521 1521 1521
1511 1515 1517 1516 1515 1516 1517 1519 1516 1515 1516 1516 1517 1517 1518 1519 1519 1519 1519 1519 1519 1518 1518 1518 1517 1517 1517 1517 1516 1516 1515 1515 1516 1516 1516 1516 1515 1516 1516 1516 1516 1516 1517 1517 1517 1517 1517 1518 1518
1513 1515 1516 1518 1517 1516 1518 1519 1517 1515 1515 1516 1516 1517 1517 1517 1517 1518 1518 1517 1517 1517 1516 1516 1515 1514 1514 1514 1514 1513 1512 1512 1513 1512 1512 1512 1512 1512 1513 1513 1513 1513 1513 1514 1514 1514 1515 1515 1516
1512 1513 1514 1516 1520 1523 1520 1525 1517 1516 1516 1515 1515 1515 1516 1516 1517 1517 1517 1516 1516 1516 1515 1514 1513 1513 1512 1511 1510 1510 1509 1509 1509 1509 1509 1509 1509 1509 1510 1510 1510 1510 1510 1510 1510 1511 1511 1512 1512
1513 1513 1514 1516 1521 1526 1524 1526 1519 1517 1516 1515 1515 1515 1515 1516 1516 1516 1516 1515 1515 1514 1513 1512 1511 1510 1510 1509 1508 1507 1506 1506 1506 1506 1505 1505 1505 1506 1506 1506 1506 1506 1506 1507 1507 1507 1508 1508 1508
1513 1515 1517 1522 1525 1527 1523 1527 1520 1518 1513 1512 1513 1514 1514 1515 1515 1515 1515 1514 1513 1513 1511 1510 1509 1508 1507 1506 1505 1504 1504 1503 1502 1502 1502 1501 1501 1502 1502 1502 1502 1502 1502 1503 1503 1503 1504 1504 1504
1515 1519 1526 1527 1532 1525 1522 1524 1519 1514 1512 1510 1511 1512 1513 1513 1514 1513 1513 1512 1512 1511 1509 1508 1507 1506 1505 1503 1502 1502 1501 1500 1499 1498 1498 1498 1497 1497 1498 1498 1498 1498 1498 1499 1499 1499 1499 1500 1500
1516 1517 1524 1529 1532 1527 1524 1522 1516 1514 1512 1510 1511 1512 1512 1513 1513 1512 1512 1511 1510 1509 1508 1506 1505 1504 1502 1501 1500 1498 1498 1497 1496 1495 1495 1494 1494 1494 1493 1493 1493 1494 1494 1494 1495 1495 1495 1495 1496
1515 1519 1520 1530 1537 1537 1527 1523 1516 1513 1512 1511 1511 1511 1511 1512 1511 1511 1510 1510 1509 1507 1506 1504 1503 1501 1500 1498 1497 1496 1495 1493 1492 1492 1491 1490 1490 1489 1489 1489 1489 1489 1489 1490 1490 1490 1490 1491 1491
1515 1518 1524 1528 1531 1532 1524 1523 1515 1513 1512 1512 1511 1511 1511 1511 1510 1510 1509 1508 1507 1506 1504 1503 1501 1499 1498 1496 1494 1493 1491 1490 1489 1488 1487 1486 1486 1485 1485 1484 1484 1484 1484 1485 1485 1485 1485 1485 1486
1519 1519 1520 1527 1529 1532 1531 1520 1510 1508 1508 1510 1510 1510 1510 1510 1509 1508 1507 1506 1505 1504 1502 1501 1499 1497 1495 1494 1492 1490 1488 1487 1486 1484 1483 1482 1482 1481 1480 1480 1479 1479 1479 1479 1480 1480 1480 1480 1481
1518 1519 1521 1524 1528 1532 1532 1521 1507 1507 1506 1507 1508 1508 1509 1508 1508 1507 1505 1504 1503 1501 1500 1498 1497 1495 1493 1491 1489 1487 1485 1484 1482 1481 1480 1478 1477 1477 1476 1475 1475 1474 1474 1474 1474 1474 1474 1475 1475